Falls City, NE

3:14 PM CDT on July 25, 2017 (GMT -0500)
Brenner

Weather History for KFNB - July, 2012

Change the Weather History Date:

Tuesday, July 3, 2012

  Actual Average Record
Temperature  
Mean Temperature 86 °F -  
Max Temperature 97 °F 88 °F 105 °F (1990)
Min Temperature 75 °F 65 °F 49 °F (1992)
Cooling Degree Days 21    
Growing Degree Days 36 (Base 50)    
Moisture  
Dew Point 70 °F    
Average Humidity 59    
Maximum Humidity 74    
Minimum Humidity 40    
Precipitation  
Precipitation 0.00 in - - ()
Sea Level Pressure  
Sea Level Pressure 29.82 in    
Wind  
Wind Speed 8 mph (South)    
Max Wind Speed 14 mph    
Max Gust Speed 18 mph    
Visibility 10 miles    
Events      
Averages and records for this station are not official NWS values.
T = Trace of Precipitation, MM = Missing Value Source: NWS Daily Summary

Daily Weather History Graph

Daily Weather History Graph

Search for Another Location

Airport or City:

Trip Planner

Search our weather history database for the weather conditions in past years. The results will help you decide how hot, cold, wet, or windy it might be!

Date:

Astronomy

Jul. 03, 2012 Rise Set
Actual Time 5:58 AM CDT 8:54 PM CDT
Civil Twilight 5:25 AM CDT 9:27 PM CDT
Nautical Twilight 4:44 AM CDT 10:08 PM CDT
Astronomical Twilight 3:56 AM CDT 10:56 PM CDT
Moon 8:50 PM CDT (7/3) 5:52 AM CDT (7/3)
Length of Visible Light 16h 01m
Length of Day
14h 56m
Full, 100% of the Moon is Illuminated
Jul 3
Full
Jul 3
Full
Jul 10
Last Quarter
Jul 18
New
Jul 26
First Quarter

Hourly Weather History & Observations

Time (CDT) Temp. Heat Index Dew Point Humidity Pressure Visibility Wind Dir Wind Speed Gust Speed Precip Events Conditions
12:53 AM 80.1 °F 82.7 °F 68.0 °F 67% 29.87 in 10.0 mi South 6.9 mph - N/A   Clear
1:53 AM 78.1 °F - 66.9 °F 68% 29.87 in 10.0 mi South 6.9 mph - N/A   Clear
2:53 AM 78.1 °F - 66.9 °F 68% 29.85 in 10.0 mi South 6.9 mph - N/A   Clear
3:53 AM 78.1 °F - 66.9 °F 68% 29.84 in 10.0 mi SSW 9.2 mph - N/A   Clear
4:53 AM 75.9 °F - 66.9 °F 74% 29.84 in 10.0 mi SSW 9.2 mph - N/A   Clear
5:53 AM 75.9 °F - 66.9 °F 74% 29.83 in 10.0 mi SSW 9.2 mph - N/A   Clear
6:53 AM 75.9 °F - 66.9 °F 74% 29.85 in 10.0 mi South 9.2 mph - N/A   Clear
7:53 AM 79.0 °F - 66.9 °F 66% 29.86 in 10.0 mi SSW 6.9 mph - N/A   Clear
8:53 AM 82.0 °F 84.9 °F 68.0 °F 62% 29.86 in 10.0 mi South 9.2 mph - N/A   Clear
9:53 AM 86.0 °F 90.1 °F 69.1 °F 57% 29.86 in 10.0 mi SSW 8.1 mph - N/A   Clear
10:53 AM 89.1 °F 94.1 °F 70.0 °F 53% 29.85 in 10.0 mi SSW 13.8 mph 18.4 mph N/A   Clear
11:53 AM 91.0 °F 97.6 °F 71.1 °F 52% 29.86 in 10.0 mi SSW 10.4 mph - N/A   Clear
12:53 PM 93.0 °F 100.7 °F 72.0 °F 50% 29.85 in 10.0 mi SSW 9.2 mph - N/A   Clear
1:53 PM 93.9 °F 102.1 °F 72.0 °F 49% 29.83 in 10.0 mi South 13.8 mph - N/A   Clear
2:53 PM 96.1 °F 104.9 °F 72.0 °F 46% 29.82 in 10.0 mi SSE 10.4 mph - N/A   Clear
3:53 PM 97.0 °F 102.8 °F 69.1 °F 40% 29.81 in 10.0 mi South 11.5 mph - N/A   Clear
4:53 PM 97.0 °F 102.8 °F 69.1 °F 40% 29.80 in 10.0 mi SSW 10.4 mph - N/A   Clear
5:53 PM 96.1 °F 103.5 °F 71.1 °F 44% 29.78 in 10.0 mi South 6.9 mph - N/A   Clear
6:53 PM 95.0 °F 102.5 °F 71.1 °F 46% 29.77 in 10.0 mi South 4.6 mph - N/A   Clear
7:53 PM 91.0 °F 100.4 °F 73.9 °F 57% 29.76 in 10.0 mi South 4.6 mph - N/A   Clear
8:53 PM 84.9 °F 93.3 °F 75.0 °F 72% 29.76 in 10.0 mi SSE 5.8 mph - N/A   Clear
9:53 PM 84.9 °F 90.7 °F 72.0 °F 65% 29.77 in 10.0 mi South 4.6 mph - N/A   Clear
10:53 PM 82.9 °F 87.5 °F 71.1 °F 67% 29.78 in 10.0 mi South 5.8 mph - N/A   Clear
11:53 PM 82.9 °F 85.8 °F 68.0 °F 60% 29.80 in 10.0 mi South 6.9 mph - N/A   Clear